[[{"header":{"parameterUnit":"m.s-1","parameterCategory":1,"la1":30.2991,"la2":30.254,"lo1":-89.0895,"lo2":-89.0444,"dx":0.0017,"dy":0.0017,"nx":28,"ny":28,"refTime":"2022-11-19T09:00:00:Z","depth":0,"parameterNumber":2,"parameterNumberName":"U-component_of_WINDS"},"data":[0,0,0,0,0,0,0,0,0,0,0,0,0,0,0,0,0,0,0,0,0,0,0,0,0,0,0,0,0,0,0,0,0,0,0,0,0,0,0,0,0,0,0,0,0,0,0,0,0,0,0,0,0,0,0,0,0,0,-2.9555,-2.9555,0,-2.9615,-2.9615,-2.9616,-2.9482,-2.9477,-2.9473,-2.9469,-2.9533,-2.9538,-2.9544,0,0,0,0,0,0,0,0,0,0,0,0,0,-2.9326,-2.9331,-2.9555,-2.9555,-2.9556,-2.9614,-2.9615,-2.9616,-2.9483,-2.9477,-2.9472,-2.9467,-2.9531,-2.9537,-2.9544,0,0,0,0,0,0,0,0,0,0,0,0,0,-2.941,-2.9332,-2.9555,-2.9496,-2.9492,-2.9614,-2.9615,-2.9616,-2.9484,-2.9477,-2.9471,-2.9465,-2.9528,-2.9537,-2.9545,-2.9727,0,0,-2.9571,-2.9575,0,0,0,0,0,0,0,0,-2.9405,-2.9418,-2.9504,-2.9501,-2.9496,-2.9534,-2.9558,-2.9654,-2.9485,-2.9487,-2.9469,-2.9461,-2.9538,-2.9546,-2.9571,-2.973,-2.9733,-2.9572,-2.9577,-2.9581,-2.9583,0,0,0,0,0,0,0,-2.9399,-2.9415,-2.9578,-2.9506,-2.9501,-2.9468,-2.9473,-2.9575,-2.9548,-2.9486,-2.9477,-2.9485,-2.9535,-2.9563,-2.9572,-2.9734,-2.9572,-2.958,-2.9585,-2.9588,-3.0046,-3.0052,0,0,0,0,0,0,-2.9401,-2.9411,-2.9576,-2.958,-2.9433,-2.9477,-2.9482,-2.9528,-2.9547,-2.9543,-2.9491,-2.9479,-2.9552,-2.9562,-2.9574,-2.9789,-2.9581,-2.9589,-2.9594,-3.0039,-3.0047,-3.0055,0,0,0,0,0,0,-2.9396,-2.9417,-2.9574,-2.9493,-2.951,-2.9488,-2.9541,-2.9533,-2.9561,-2.955,-2.9545,-2.9525,-2.9547,-2.9561,-2.969,-2.9789,-2.9593,-2.9601,-3.0031,-3.0041,-3.0051,-3.0222,0,0,0,0,0,0,-2.939,-2.9416,-2.9485,-2.9495,-2.9515,-2.969,-2.9547,-2.9539,-2.9576,-2.9561,-2.9581,-2.9578,-2.9543,-2.9678,-2.9699,-2.9798,-2.9607,-3.0022,-3.0035,-3.0048,-3.0207,-3.0237,-3.0262,0,0,0,0,0,-2.9383,-2.9531,-2.9489,-2.951,-2.9601,-2.9696,-2.9707,-2.9664,-2.9585,-2.9654,-2.9647,-2.9577,-2.9774,-2.9692,-2.9714,-2.9818,-3.0015,-3.0032,-3.0047,-3.0195,-3.0231,-3.0261,0,0,0,0,0,0,-2.9534,-2.9531,-2.9485,-2.9641,-2.967,-2.9673,-2.976,-2.9703,-2.9756,-2.974,-2.9684,-2.9689,-2.9829,-2.9835,-2.9744,-2.9995,-2.9881,-2.9902,-2.9986,-3.0021,-3.0048,-3.0045,-2.9614,0,0,0,0,0,-2.9585,-2.9662,-2.9656,-2.9794,-2.9811,-2.9783,-2.9823,-2.9786,-2.9814,-2.9826,-2.9828,-2.9858,-2.9926,-2.9973,-3.0036,-3.0206,-3.0209,-3.0288,-3.0315,-3.0338,-3.0358,-3.0449,-3.0484,-3.0107,-3.0107,-3.0106,0,0,-2.9693,-2.9701,-2.9753,-2.9825,-2.9843,-2.9924,-2.9794,-2.9886,-2.9946,-2.984,-2.9962,-2.9965,-2.9994,-3.0145,-3.0211,-3.0155,-3.0462,-3.0358,-3.0376,-3.0384,-3.0469,-3.0505,-3.0537,-3.0118,-3.0116,-3.0114,0,0,-2.9931,-2.9944,-3.0061,-3.0081,-3.0109,-3.009,-3.0118,-3.013,-3.0127,-3.0248,-3.017,-3.0241,-3.036,-3.0385,-3.0413,-3.0658,-3.0597,-3.068,-3.0825,-3.0915,-3.0945,-3.0971,-3.1061,-3.1093,-3.0699,-3.0699,-3.07,0,-3.0061,-3.0181,-3.0128,-3.0226,-3.026,-3.0166,-3.0285,-3.0307,-3.0355,-3.0381,-3.0316,-3.0463,-3.0476,-3.0632,-3.0692,-3.0717,-3.0748,-3.0679,-3.0944,-3.097,-3.0994,-3.1079,-3.1113,-3.071,-3.0708,-3.0707,-3.0706,0,-3.0341,-3.0425,-3.0516,-3.0564,-3.0608,-3.0716,-3.068,-3.0731,-3.069,-3.0677,-3.0802,-3.0814,-3.0878,-3.0911,-3.0872,-3.1062,-3.1026,-3.0953,-3.0839,-3.1041,-3.112,-3.1152,-3.0724,-3.072,-3.0717,-3.0715,0,0,-3.068,-3.0695,-3.073,-3.0751,-3.0774,-3.0839,-3.0941,-3.1003,-3.1049,-3.1083,-3.117,-3.1272,-3.1205,-3.1237,-3.1199,-3.1278,-3.1474,-3.1196,-3.1196,-3.125,-3.1685,-3.1742,-3.1781,-3.1432,-3.1438,-3.1442,-3.1684,0,-3.0917,-3.1094,-3.1049,-3.1226,-3.1304,-3.1214,-3.1303,-3.1328,-3.1318,-3.1383,-3.1371,-3.1446,-3.135,-3.1369,-3.1442,-3.1435,-3.1561,-3.1416,-3.1513,-3.1518,-3.1512,-3.1821,-3.1882,-3.2109,-3.1714,-3.1719,-3.1723,0,-3.1219,-3.1265,-3.145,-3.146,-3.1491,-3.1573,-3.1625,-3.1687,-3.1713,-3.17,-3.1735,-3.1682,-3.1784,-3.1666,-3.1807,-3.1709,-3.1745,-3.1747,-3.1755,-3.1765,-3.1635,-3.1843,-3.218,-3.2216,-3.177,-3.1767,-3.1763,0,-3.1451,-3.1559,-3.1683,-3.1703,-3.1718,-3.1778,-3.1787,-3.1805,-3.1845,-3.1891,-3.1916,-3.1973,-3.2005,-3.2051,-3.2014,-3.1931,-3.2162,-3.204,-3.2156,-3.2157,-3.2211,-3.2209,-3.2563,-3.223,-3.2229,-3.2228,-3.2228,0,-3.1723,-3.184,-3.1788,-3.1865,-3.1993,-3.194,-3.2068,-3.2067,-3.2084,-3.2159,-3.2084,-3.2156,-3.2102,-3.217,-3.2142,-3.2264,-3.2278,-3.2272,-3.2263,-3.2281,-3.2282,-3.2306,-3.2291,-3.2237,-3.2235,-3.2234,-3.2232,0,-3.2006,-3.1975,-3.2105,-3.2108,-3.2111,-3.2206,-3.2208,-3.228,-3.2262,-3.2359,-3.2379,-3.2353,-3.2429,-3.2396,-3.2476,-3.2457,-3.2614,-3.2583,-3.2606,-3.26,-3.2718,-3.2709,-3.3103,-3.3152,-3.2784,-3.2788,-3.2791,0,-3.2183,-3.2271,-3.2283,-3.2327,-3.2341,-3.2414,-3.2454,-3.2404,-3.2449,-3.2483,-3.2551,-3.262,-3.2673,-3.2798,-3.2788,-3.2848,-3.282,-3.2954,-3.2829,-3.2844,-3.2826,-3.2822,-3.2832,-3.298,-3.2985,-3.2988,-3.2991,0,-3.2503,-3.2483,-3.2543,-3.2598,-3.2647,-3.2688,-3.2723,-3.2764,-3.2715,-3.2769,-3.2845,-3.2886,-3.2967,-3.3037,-3.309,-3.3099,-3.3039,-3.3029,-3.306,-3.308,-3.3091,-3.309,-3.2678,-3.3022,-3.3019,-3.3016,-3.3015,-3.3014,-3.274,-3.2814,-3.2834,-3.2903,-3.2923,-3.2957,-3.3025,-3.3016,-3.3078,-3.3141,-3.3106,-3.3196,-3.3218,-3.3283,-3.33,-3.337,-3.3317,-3.3361,-3.3372,-3.3385,-3.3402,-3.3077,-3.3379,-3.3378,-3.3377,-3.3376,-3.3375,0,-3.3058,-3.3065,-3.3129,-3.318,-3.3235,-3.3169,-3.3204,-3.3255,-3.3334,-3.3359,-3.3412,-3.35,-3.3567,-3.3561,-3.3622,-3.368,-3.3653,-3.3698,-3.3695,-3.3698,-3.3444,-3.3413,-3.3718,-3.3718,-3.3718,-3.3718,-3.3718,-3.3718,-3.323,-3.3353,-3.3335,-3.3467,-3.3473,-3.356,-3.3585,-3.3616,-3.3636,-3.3738,-3.3793,-3.3787,-3.38,-3.3862,-3.392,-3.3916,-3.3944,-3.4,-3.3987,-3.375,-3.3716,-3.3684,-3.3654,-3.4006,-3.4006,-3.4235,-3.4238,-3.4239]},{"header":{"parameterUnit":"m.s-1","parameterCategory":1,"la1":30.2991,"la2":30.254,"lo1":-89.0895,"lo2":-89.0444,"dx":0.0017,"dy":0.0017,"nx":28,"ny":28,"refTime":"2022-11-19T09:00:00:Z","depth":0,"parameterNumber":3,"parameterNumberName":"V-component_of_WINDS"},"data":[0,0,0,0,0,0,0,0,0,0,0,0,0,0,0,0,0,0,0,0,0,0,0,0,0,0,0,0,0,0,0,0,0,0,0,0,0,0,0,0,0,0,0,0,0,0,0,0,0,0,0,0,0,0,0,0,0,0,-4.3675,-4.3676,0,-4.3732,-4.3733,-4.3734,-4.3685,-4.3683,-4.3681,-4.3679,-4.3734,-4.3737,-4.374,0,0,0,0,0,0,0,0,0,0,0,0,0,-4.3519,-4.3522,-4.3675,-4.3676,-4.3676,-4.3732,-4.3733,-4.3734,-4.3685,-4.3683,-4.368,-4.3678,-4.3732,-4.3736,-4.374,0,0,0,0,0,0,0,0,0,0,0,0,0,-4.3582,-4.3523,-4.3675,-4.3659,-4.3658,-4.3732,-4.3733,-4.3734,-4.3686,-4.3683,-4.368,-4.3677,-4.3731,-4.3736,-4.3741,-4.3832,0,0,-4.3756,-4.3758,0,0,0,0,0,0,0,0,-4.3579,-4.3588,-4.3661,-4.366,-4.366,-4.3699,-4.3698,-4.3767,-4.3687,-4.3675,-4.3679,-4.3676,-4.3724,-4.3729,-4.3747,-4.3834,-4.3837,-4.3757,-4.376,-4.3762,-4.3763,0,0,0,0,0,0,0,-4.3574,-4.3585,-4.3697,-4.3662,-4.3661,-4.3647,-4.3653,-4.3711,-4.3716,-4.3676,-4.3673,-4.368,-4.3723,-4.3742,-4.3748,-4.3838,-4.3756,-4.3761,-4.3764,-4.3766,-4.4,-4.4003,0,0,0,0,0,0,-4.3572,-4.3582,-4.3696,-4.3699,-4.3611,-4.3653,-4.3659,-4.3689,-4.3715,-4.3716,-4.3683,-4.3678,-4.3735,-4.3742,-4.3749,-4.3855,-4.3762,-4.3766,-4.3769,-4.3997,-4.4001,-4.4004,0,0,0,0,0,0,-4.3569,-4.3583,-4.3693,-4.364,-4.3653,-4.3659,-4.3693,-4.3692,-4.371,-4.372,-4.372,-4.3702,-4.3733,-4.3742,-4.3811,-4.3857,-4.3769,-4.3773,-4.3993,-4.3998,-4.4002,-4.407,0,0,0,0,0,0,-4.3565,-4.3582,-4.3618,-4.3641,-4.3656,-4.3756,-4.3695,-4.3695,-4.372,-4.3714,-4.3738,-4.3739,-4.3731,-4.3804,-4.3816,-4.3862,-4.3777,-4.3989,-4.3995,-4.4001,-4.4064,-4.4077,-4.4088,0,0,0,0,0,-4.3559,-4.3634,-4.362,-4.3634,-4.3701,-4.3759,-4.3767,-4.3758,-4.3724,-4.3759,-4.3765,-4.3738,-4.385,-4.3812,-4.3825,-4.3873,-4.3986,-4.3993,-4.4,-4.4058,-4.4074,-4.4087,0,0,0,0,0,0,-4.3615,-4.3637,-4.3621,-4.3706,-4.3731,-4.3751,-4.3795,-4.3776,-4.381,-4.3803,-4.3789,-4.3795,-4.3867,-4.3877,-4.3834,-4.3961,-4.3912,-4.3922,-4.3952,-4.3967,-4.3978,-4.3973,-4.3781,0,0,0,0,0,-4.3638,-4.3685,-4.37,-4.3774,-4.3787,-4.3789,-4.3814,-4.3805,-4.383,-4.3839,-4.3851,-4.3874,-4.3914,-4.3941,-4.3979,-4.4065,-4.4068,-4.4105,-4.4116,-4.4126,-4.4135,-4.4178,-4.4194,-4.4028,-4.4028,-4.4028,0,0,-4.3684,-4.3702,-4.3732,-4.3785,-4.3804,-4.385,-4.3798,-4.385,-4.3884,-4.3847,-4.3913,-4.3922,-4.3947,-4.4025,-4.4059,-4.4035,-4.4181,-4.4136,-4.4143,-4.4146,-4.4187,-4.4203,-4.4217,-4.4033,-4.4032,-4.4031,0,0,-4.3792,-4.3812,-4.3874,-4.3893,-4.3922,-4.3922,-4.3937,-4.396,-4.3964,-4.403,-4.4003,-4.4042,-4.4113,-4.4131,-4.415,-4.4264,-4.424,-4.4277,-4.4338,-4.4381,-4.4394,-4.4405,-4.4444,-4.4458,-4.4285,-4.4286,-4.4286,0,-4.3846,-4.3917,-4.3908,-4.3962,-4.3985,-4.3954,-4.4016,-4.4035,-4.4074,-4.4089,-4.4062,-4.4149,-4.4164,-4.4244,-4.4272,-4.4289,-4.4304,-4.4273,-4.4393,-4.4405,-4.4415,-4.4451,-4.4466,-4.429,-4.4289,-4.4289,-4.4288,0,-4.398,-4.4029,-4.4076,-4.4115,-4.4144,-4.4201,-4.4199,-4.4229,-4.4217,-4.422,-4.4286,-4.4303,-4.4343,-4.4362,-4.4351,-4.444,-4.4424,-4.4396,-4.4346,-4.4435,-4.4469,-4.4483,-4.4296,-4.4294,-4.4293,-4.4292,0,0,-4.4124,-4.4157,-4.4174,-4.4191,-4.422,-4.4257,-4.4312,-4.4352,-4.4377,-4.4405,-4.4449,-4.4509,-4.4483,-4.4504,-4.4494,-4.4532,-4.4619,-4.4499,-4.4499,-4.4519,-4.4715,-4.4735,-4.4751,-4.4604,-4.4606,-4.4608,-4.4712,0,-4.4231,-4.4329,-4.4322,-4.4413,-4.4457,-4.4428,-4.4476,-4.4498,-4.4502,-4.4538,-4.4542,-4.4584,-4.4547,-4.4559,-4.4596,-4.4601,-4.4658,-4.4593,-4.4642,-4.4644,-4.4635,-4.477,-4.4791,-4.4888,-4.4726,-4.4728,-4.473,0,-4.437,-4.4403,-4.4499,-4.452,-4.4538,-4.4581,-4.4616,-4.4652,-4.4676,-4.4676,-4.4699,-4.4683,-4.4736,-4.4687,-4.4759,-4.4715,-4.4735,-4.474,-4.4744,-4.4746,-4.4691,-4.4773,-4.4919,-4.4933,-4.4751,-4.4749,-4.4748,0,-4.4463,-4.4531,-4.4597,-4.4612,-4.4639,-4.4669,-4.4682,-4.4702,-4.4726,-4.4756,-4.4771,-4.4807,-4.4826,-4.4854,-4.4847,-4.4812,-4.4919,-4.487,-4.4919,-4.4919,-4.4941,-4.494,-4.509,-4.4958,-4.4958,-4.4957,-4.4957,0,-4.4582,-4.4641,-4.4639,-4.4679,-4.4743,-4.4734,-4.4797,-4.4806,-4.4824,-4.4864,-4.4841,-4.4879,-4.4868,-4.4905,-4.49,-4.4959,-4.4968,-4.4968,-4.4965,-4.4969,-4.4968,-4.498,-4.4972,-4.4961,-4.496,-4.496,-4.4959,0,-4.4696,-4.4697,-4.4766,-4.4786,-4.4792,-4.4838,-4.4854,-4.4891,-4.4893,-4.4943,-4.4954,-4.4957,-4.4999,-4.4995,-4.5042,-4.5038,-4.5111,-4.5101,-4.5103,-4.51,-4.5148,-4.5143,-4.5309,-4.533,-4.5187,-4.5188,-4.5189,0,-4.4771,-4.4816,-4.484,-4.4866,-4.488,-4.4922,-4.4946,-4.4938,-4.4964,-4.4993,-4.5026,-4.5066,-4.5097,-4.5164,-4.5169,-4.5204,-4.5194,-4.525,-4.5199,-4.52,-4.5192,-4.5189,-4.5192,-4.5259,-4.5261,-4.5262,-4.5264,0,-4.4904,-4.4902,-4.4938,-4.4975,-4.5005,-4.5033,-4.5059,-4.5081,-4.5075,-4.5105,-4.5148,-4.5172,-4.522,-4.5258,-4.5291,-4.5302,-4.5281,-4.528,-4.5292,-4.5295,-4.5293,-4.5293,-4.5128,-4.5276,-4.5274,-4.5273,-4.5273,-4.5272,-4.4999,-4.5036,-4.5059,-4.51,-4.5119,-4.5143,-4.5178,-4.5185,-4.5221,-4.5259,-4.5252,-4.53,-4.532,-4.5362,-4.5376,-4.5412,-4.5391,-4.541,-4.5415,-4.5419,-4.5423,-4.529,-4.5418,-4.5418,-4.5417,-4.5417,-4.5417,0,-4.5128,-4.5141,-4.5179,-4.5216,-4.5248,-4.5228,-4.5254,-4.5282,-4.5324,-4.5346,-4.5377,-4.5425,-4.5462,-4.547,-4.5505,-4.5532,-4.5523,-4.5541,-4.5538,-4.554,-4.5441,-4.5425,-4.5548,-4.5548,-4.5548,-4.5548,-4.5548,-4.5548,-4.5199,-4.5261,-4.5261,-4.5331,-4.5344,-4.5391,-4.5408,-4.5429,-4.5446,-4.5501,-4.5532,-4.5538,-4.5553,-4.5589,-4.5622,-4.5623,-4.5636,-4.5657,-4.5655,-4.5561,-4.5548,-4.5535,-4.552,-4.5661,-4.5661,-4.5751,-4.5752,-4.5752]}]]